Powrót do katalogu

STARLINK-3399

AktywnyŁącznośćVLEO
NORAD 51121·PAYLOAD·🇺🇸 United States

Wystrzelony Jan 19, 2022 z Cape Canaveral Space Force Station

Loading…

Następne Przeloty (najbliższe 24 godziny)

TLE

ŚwieżeSource: CelesTrak SupGP

Epoka: Sep 14, 2026, 13:12 UTC

1 51121C 22005T   26257.55048611  .00007430  00000+0  46603-3 0  2573
2 51121  53.1584 160.6733 0001687  93.7652  66.5710 15.08825295    19

Śledź STARLINK-3399 w czasie rzeczywistym z AllMySat

Download on the App Store